EW5726 Weather Reports


time (UTC)temp
C
wind
direction
speed
KPH
gust
KPH
rain 1hr
cm
rain 24hr
cm
rain mn
cm
humidity
%
barometer
mb
20260508014517 15 245 0.0 8.0 0.00 0.00 0.00 17 1020.6
20260508013015 16 244 4.8 14.5 0.00 0.00 0.00 14 1020.5
20260508011516 17 260 4.8 9.7 0.00 0.00 0.00 15 1020.4
20260508010031 17 254 1.6 14.5 0.00 0.00 0.00 14 1020.4
20260508004513 17 240 4.8 12.9 0.00 0.00 0.00 14 1020.5
20260508003011 17 229 4.8 17.7 0.00 0.00 0.00 14 1020.6
20260508001510 17 240 6.4 16.1 0.00 0.00 0.00 15 1020.7
20260508000010 17 255 6.4 20.9 0.00 0.00 0.00 17 1020.7
20260507234509 17 278 6.4 16.1 0.00 0.00 0.00 19 1020.7
20260507233008 17 261 3.2 14.5 0.00 0.00 0.00 20 1020.9
20260507231507 17 231 9.7 20.9 0.00 0.00 0.00 21 1021.0
20260507230014 17 244 3.2 22.5 0.00 0.00 0.00 22 1021.1
20260507224508 17 259 9.7 19.3 0.00 0.00 0.00 22 1021.2
20260507223002 17 244 4.8 17.7 0.00 0.00 0.00 18 1021.6
20260507221602 17 258 4.8 14.5 0.00 0.00 0.00 18 1021.8
20260507220058 17 310 4.8 14.5 0.00 0.00 0.00 18 1022.3
20260507214559 17 10 1.6 9.7 0.00 0.00 0.00 16 1022.6
20260507213124 17 240 6.4 20.9 0.00 0.00 0.00 15 1022.9
20260507211552 17 261 3.2 24.1 0.00 0.00 0.00 14 1023.1
20260507210150 17 340 4.8 19.3 0.00 0.00 0.00 13 1023.4
20260507204549 17 278 4.8 17.7 0.00 0.00 0.00 12 1023.5
20260507203045 16 246 4.8 16.1 0.00 0.00 0.00 12 1023.8
20260507201547 16 246 3.2 16.1 0.00 0.00 0.00 11 1024.1
20260507200053 16 298 6.4 17.7 0.00 0.00 0.00 11 1024.4
20260507194538 16 251 6.4 17.7 0.00 0.00 0.00 11 1024.3
20260507193045 15 216 3.2 17.7 0.00 0.00 0.00 13 1024.6
20260507191532 15 266 9.7 22.5 0.00 0.00 0.00 18 1024.6
20260507190035 15 343 6.4 25.7 0.00 0.00 0.00 21 1024.9
20260507184528 14 271 6.4 19.3 0.00 0.00 0.00 22 1024.9
20260507183033 13 269 4.8 17.7 0.00 0.00 0.00 25 1025.1
20260507181519 13 265 8.0 19.3 0.00 0.00 0.00 26 1025.4
20260507180017 13 310 8.0 22.5 0.00 0.00 0.00 29 1025.8
20260507174519 12 325 8.0 25.7 0.00 0.00 0.00 33 1026.1
20260507173015 12 314 4.8 19.3 0.00 0.00 0.00 38 1026.2
20260507171506 11 236 6.4 20.9 0.00 0.00 0.00 43 1026.5
20260507170002 10 293 8.0 17.7 0.00 0.00 0.00 46 1026.9
20260507164603 9 291 1.6 16.1 0.00 0.00 0.00 49 1026.9
20260507163056 8 49 1.6 19.3 0.00 0.00 0.00 52 1026.9
20260507161606 7 324 4.8 16.1 0.00 0.00 0.00 57 1027.0
20260507160054 7 343 9.7 22.5 0.00 0.00 0.00 57 1027.3
20260507154553 7 337 1.6 14.5 0.00 0.00 0.00 55 1027.4
20260507153109 7 292 4.8 17.7 0.00 0.00 0.00 56 1027.6
20260507151556 8 321 1.6 11.3 0.00 0.00 0.00 48 1027.6
20260507150051 6 232 0.0 6.4 0.00 0.00 0.00 51 1027.6
20260507144542 6 215 4.8 9.7 0.00 0.00 0.00 52 1027.9
20260507143040 5 72 0.0 4.8 0.00 0.00 0.00 55 1028.1
20260507141535 4 72 1.6 4.8 0.00 0.00 0.00 62 1028.4
20260507140033 3 72 3.2 6.4 0.00 0.00 0.00 67 1028.8
20260507134527 1 72 4.8 12.9 0.00 0.05 0.00 70 1028.8
20260507133026 0 71 3.2 12.9 0.00 0.05 0.00 74 1028.8
20260507131527 0 71 3.2 8.0 0.00 0.05 0.00 79 1028.8
20260507130051 -1 71 3.2 12.9 0.00 0.05 0.00 80 1028.9
20260507124524 -2 70 8.0 14.5 0.00 0.05 0.00 81 1029.0
20260507123022 -2 71 4.8 12.9 0.00 0.05 0.00 82 1028.9
20260507121520 -2 71 4.8 11.3 0.00 0.05 0.00 83 1029.0
20260507120018 -2 71 3.2 14.5 0.00 0.05 0.00 82 1029.0
20260507114520 -2 70 4.8 8.0 0.00 0.05 0.00 81 1028.9
20260507113017 -1 70 3.2 11.3 0.00 0.05 0.00 80 1028.9
20260507111519 -1 70 6.4 16.1 0.00 0.05 0.00 80 1028.9
20260507110014 -2 69 4.8 11.3 0.00 0.05 0.00 80 1028.8
20260507104515 -2 69 4.8 11.3 0.00 0.05 0.00 80 1028.8
20260507103011 -2 69 3.2 11.3 0.00 0.05 0.00 80 1028.9
20260507101510 -1 68 3.2 11.3 0.00 0.05 0.00 78 1028.8
20260507100008 -2 68 4.8 11.3 0.00 0.05 0.00 79 1028.8
20260507094506 -2 68 4.8 11.3 0.00 0.05 0.00 80 1029.0
20260507093006 -2 68 3.2 8.0 0.00 0.05 0.00 79 1028.9
20260507091502 -2 68 3.2 6.4 0.00 0.05 0.00 79 1028.8
20260507090059 -1 68 3.2 4.8 0.00 0.05 0.00 77 1028.8
20260507084600 -1 68 1.6 4.8 0.00 0.05 0.00 76 1028.5
20260507083109 -1 68 3.2 8.0 0.00 0.05 0.00 77 1028.4
20260507081559 -1 68 3.2 11.3 0.00 0.05 0.00 77 1028.2
20260507080050 -1 67 4.8 6.4 0.00 0.05 0.00 76 1028.0
20260507074548 -1 67 3.2 6.4 0.00 0.08 0.00 75 1028.0
20260507073053 0 67 3.2 11.3 0.00 0.08 0.00 73 1027.8
20260507071540 0 68 3.2 12.9 0.00 0.08 0.00 71 1027.4
20260507070041 0 67 4.8 14.5 0.00 0.08 0.00 70 1027.6
20260507064539 1 68 6.4 14.5 0.00 0.08 0.00 70 1027.4
20260507063034 1 74 9.7 17.7 0.00 0.08 0.00 69 1027.2
20260507061529 1 69 9.7 19.3 0.00 0.08 0.00 69 1027.2
20260507060031 1 59 9.7 17.7 0.00 0.08 0.00 69 1027.1
20260507054529 2 55 11.3 19.3 0.00 0.08 0.08 68 1026.9
20260507053024 2 65 11.3 20.9 0.00 0.08 0.08 68 1026.9
20260507051523 2 68 9.7 17.7 0.00 0.08 0.08 67 1026.7
20260507050032 2 54 8.0 14.5 0.00 0.08 0.08 67 1026.7
20260507044530 2 240 6.4 11.3 0.00 0.18 0.08 69 1026.4
20260507043019 2 242 4.8 8.0 0.00 0.18 0.08 70 1026.2
20260507041528 2 242 3.2 8.0 0.00 0.18 0.08 70 1025.9
20260507040015 2 242 3.2 6.4 0.00 0.18 0.08 70 1025.7
20260507034517 2 242 1.6 4.8 0.00 0.23 0.08 69 1025.4
20260507033011 3 242 0.0 4.8 0.00 0.23 0.08 66 1025.1
20260507031507 3 242 1.6 4.8 0.00 0.23 0.08 62 1024.7
20260507030005 5 242 0.0 1.6 0.00 0.23 0.08 57 1024.2
20260507024503 6 242 0.0 3.2 0.00 0.38 0.08 54 1023.9
20260507023001 7 242 0.0 11.3 0.00 0.38 0.08 49 1023.6
20260507021559 7 247 0.0 17.7 0.00 0.38 0.08 47 1023.3
20260507021501 7 248 1.6 17.7 0.00 0.38 0.08 46 1023.2
20260507020110 8 244 6.4 14.5 0.00 0.38 0.08 45 1022.9